Weather History for Pampa, TX

Change the Weather History Date:

Sunday, December 22, 2013

  Actual Average Record
Temperature  
Mean Temperature 20 °F -  
Max Temperature 31 °F 44 °F 72 °F (1981)
Min Temperature 9 °F 21 °F -7 °F (1983)
Degree Days  
Heating Degree Days 45    
Moisture  
Dew Point 14 °F    
Average Humidity 82    
Maximum Humidity 90    
Minimum Humidity 63    
Precipitation  
Precipitation 0.00 in - - ()
Sea Level Pressure  
Sea Level Pressure 30.10 in    
Wind  
Wind Speed 7 mph (WNW)    
Max Wind Speed 13 mph    
Max Gust Speed -    
Visibility 9 miles    
Events Fog    
Averages and records for this station are not official NWS values.
T = Trace of Precipitation, MM = Missing Value Source: NWS Daily Summary

Daily Weather History Graph

Daily Weather History Graph

Search for Another Location

Airport:

Trip Planner

Search our weather history database for the weather conditions in past years. The results will help you decide how hot, cold, wet, or windy it might be!

Date:

Astronomy

Dec. 22, 2013 Rise Set
Actual Time 7:50 AM CST 5:35 PM CST
Civil Twilight 7:21 AM CST 6:03 PM CST
Nautical Twilight 6:49 AM CST 6:35 PM CST
Astronomical Twilight 6:18 AM CST 7:06 PM CST
Moon 10:39 PM CST (12/22) 10:56 AM CST (12/22)
Length of Visible Light 10h 41m
Length of Day
9h 44m
Waning Gibbous, 76% of the Moon is Illuminated
Dec 22
Waning Gibbous
Dec 25
Last Quarter
Jan 1
New
Jan 7
First Quarter
Jan 15
Full

Hourly Weather History & Observations

Time (CST) Temp. Windchill Dew Point Humidity Pressure Visibility Wind Dir Wind Speed Gust Speed Precip Events Conditions
12:15 AM 11.8 °F 2.5 °F 9.0 °F 88% 29.84 in 0.5 mi WNW 5.8 mph - N/A Fog Light Freezing Fog
12:35 AM 12.7 °F 2.4 °F 10.0 °F 89% 29.85 in 0.8 mi NW 6.9 mph - N/A   Mist
12:55 AM 13.1 °F 2.8 °F 10.2 °F 88% 29.85 in 2.5 mi NW 6.9 mph - N/A   Clear
1:15 AM 12.4 °F 0.9 °F 9.5 °F 88% 29.86 in 1.2 mi WNW 8.1 mph - N/A   Mist
1:35 AM 10.9 °F 1.4 °F 7.5 °F 86% 29.86 in 0.8 mi WNW 5.8 mph - N/A   Mist
1:55 AM 10.4 °F 0.8 °F 7.5 °F 88% 29.86 in 4.0 mi NW 5.8 mph - N/A   Clear
2:15 AM 10.2 °F -0.6 °F 7.3 °F 88% 29.87 in 7.0 mi NW 6.9 mph - N/A   Clear
2:35 AM 11.7 °F 2.3 °F 8.4 °F 87% 29.87 in 10.0 mi NW 5.8 mph - N/A   Clear
2:55 AM 9.7 °F 1.4 °F 6.4 °F 87% 29.89 in 10.0 mi WNW 4.6 mph - N/A   Clear
3:15 AM 9.0 °F 0.6 °F 5.7 °F 87% 29.90 in 7.0 mi WNW 4.6 mph - N/A   Clear
3:35 AM 9.5 °F 1.2 °F 6.6 °F 88% 29.91 in 10.0 mi NW 4.6 mph - N/A   Clear
3:55 AM 12.7 °F 5.0 °F 10.2 °F 90% 29.92 in 10.0 mi NW 4.6 mph - N/A   Clear
4:15 AM 12.0 °F 5.9 °F 9.0 °F 88% 29.93 in 10.0 mi NW 3.5 mph - N/A   Clear
4:35 AM 12.7 °F 3.6 °F 9.7 °F 88% 29.95 in 10.0 mi West 5.8 mph - N/A   Clear
4:55 AM 13.1 °F 4.0 °F 10.2 °F 88% 29.96 in 10.0 mi WNW 5.8 mph - N/A   Clear
5:15 AM 12.7 °F 5.0 °F 9.7 °F 88% 29.96 in 10.0 mi WNW 4.6 mph - N/A   Scattered Clouds
5:35 AM 12.2 °F 2.9 °F 9.3 °F 88% 29.98 in 10.0 mi WNW 5.8 mph - N/A   Mostly Cloudy
5:55 AM 12.9 °F 3.8 °F 10.0 °F 88% 30.00 in 10.0 mi WNW 5.8 mph - N/A   Overcast
6:15 AM 14.0 °F 3.9 °F 11.3 °F 89% 30.01 in 10.0 mi WNW 6.9 mph - N/A   Overcast
6:35 AM 14.7 °F 7.3 °F 12.0 °F 89% 30.02 in 10.0 mi WNW 4.6 mph - N/A   Overcast
6:55 AM 14.9 °F 7.5 °F 12.2 °F 89% 30.04 in 10.0 mi WNW 4.6 mph - N/A   Overcast
7:15 AM 14.9 °F 7.5 °F 12.2 °F 89% 30.06 in 10.0 mi WNW 4.6 mph - N/A   Overcast
7:35 AM 15.6 °F 7.0 °F 13.1 °F 90% 30.07 in 10.0 mi WNW 5.8 mph - N/A   Overcast
7:55 AM 15.8 °F 7.2 °F 13.1 °F 89% 30.08 in 10.0 mi WNW 5.8 mph - N/A   Overcast
8:15 AM 16.2 °F 6.5 °F 13.5 °F 89% 30.09 in 10.0 mi NW 6.9 mph - N/A   Overcast
8:35 AM 16.7 °F 8.3 °F 14.0 °F 89% 30.10 in 10.0 mi WNW 5.8 mph - N/A   Overcast
8:55 AM 17.6 °F 10.7 °F 14.9 °F 89% 30.11 in 10.0 mi WNW 4.6 mph - N/A   Overcast
9:15 AM 18.5 °F 9.3 °F 15.8 °F 89% 30.12 in 10.0 mi WNW 6.9 mph - N/A   Overcast
9:35 AM 19.4 °F 10.4 °F 15.8 °F 86% 30.14 in 10.0 mi NW 6.9 mph - N/A   Overcast
9:55 AM 20.7 °F 13.0 °F 16.2 °F 83% 30.16 in 10.0 mi NW 5.8 mph - N/A   Mostly Cloudy
10:15 AM 21.7 °F 13.2 °F 17.1 °F 82% 30.17 in 10.0 mi WNW 6.9 mph - N/A   Mostly Cloudy
10:35 AM 22.8 °F 14.5 °F 17.4 °F 80% 30.17 in 10.0 mi NW 6.9 mph - N/A   Overcast
10:55 AM 23.5 °F 15.4 °F 18.3 °F 80% 30.18 in 10.0 mi NW 6.9 mph - N/A   Mostly Cloudy
11:15 AM 24.1 °F 14.4 °F 18.1 °F 78% 30.19 in 10.0 mi NW 9.2 mph - N/A   Scattered Clouds
11:35 AM 25.5 °F 16.9 °F 19.4 °F 78% 30.19 in 10.0 mi WNW 8.1 mph - N/A   Scattered Clouds
11:55 AM 25.7 °F 16.4 °F 19.4 °F 77% 30.19 in 10.0 mi NW 9.2 mph - N/A   Clear
12:15 PM 26.4 °F 17.3 °F 19.2 °F 74% 30.18 in 10.0 mi NW 9.2 mph - N/A   Clear
12:55 PM 27.5 °F 18.6 °F 19.2 °F 71% 30.17 in 10.0 mi NW 9.2 mph - N/A   Clear
1:15 PM 28.2 °F 18.9 °F 19.9 °F 71% 30.17 in 10.0 mi NW 10.4 mph - N/A   Clear
1:55 PM 29.3 °F 20.2 °F 20.3 °F 69% 30.16 in 10.0 mi NW 10.4 mph - N/A   Clear
2:15 PM 29.7 °F 21.3 °F 20.3 °F 68% 30.16 in 10.0 mi WNW 9.2 mph - N/A   Clear
2:35 PM 30.2 °F 21.9 °F 20.5 °F 67% 30.16 in 10.0 mi NW 9.2 mph - N/A   Clear
2:55 PM 30.9 °F 23.5 °F 20.7 °F 66% 30.17 in 10.0 mi NW 8.1 mph - N/A   Clear
3:15 PM 31.1 °F 24.5 °F 20.7 °F 65% 30.17 in 10.0 mi NW 6.9 mph - N/A   Clear
3:35 PM 31.1 °F 24.5 °F 20.1 °F 64% 30.18 in 10.0 mi NW 6.9 mph - N/A   Clear
3:55 PM 31.1 °F 25.4 °F 19.8 °F 63% 30.18 in 10.0 mi WNW 5.8 mph - N/A   Clear
4:15 PM 30.7 °F 24.9 °F 20.1 °F 65% 30.18 in 10.0 mi West 5.8 mph - N/A   Clear
4:35 PM 30.0 °F 24.1 °F 19.9 °F 66% 30.19 in 10.0 mi WNW 5.8 mph - N/A   Clear
4:55 PM 28.6 °F 23.5 °F 19.8 °F 70% 30.19 in 10.0 mi West 4.6 mph - N/A   Clear
5:15 PM 26.4 °F 20.9 °F 19.4 °F 75% 30.19 in 10.0 mi WSW 4.6 mph - N/A   Clear
5:35 PM 23.9 °F 16.8 °F 18.3 °F 79% 30.19 in 10.0 mi West 5.8 mph - N/A   Clear
5:55 PM 22.5 °F 15.1 °F 17.6 °F 82% 30.20 in 10.0 mi WSW 5.8 mph - N/A   Clear
6:15 PM 19.9 °F 11.1 °F 16.3 °F 86% 30.21 in 10.0 mi SW 6.9 mph - N/A   Clear
6:35 PM 18.9 °F 9.8 °F 16.0 °F 89% 30.21 in 10.0 mi WSW 6.9 mph - N/A   Clear
6:55 PM 18.1 °F 7.9 °F 14.5 °F 86% 30.21 in 10.0 mi WSW 8.1 mph - N/A   Clear
7:15 PM 18.3 °F 7.3 °F 14.9 °F 86% 30.21 in 10.0 mi WSW 9.2 mph - N/A   Clear
7:35 PM 20.1 °F 8.8 °F 16.3 °F 85% 30.22 in 10.0 mi WSW 10.4 mph - N/A   Clear
7:55 PM 20.3 °F 9.8 °F 15.8 °F 83% 30.22 in 10.0 mi WSW 9.2 mph - N/A   Clear
8:15 PM 18.3 °F 8.2 °F 13.8 °F 83% 30.22 in 10.0 mi SW 8.1 mph - N/A   Clear
8:35 PM 15.1 °F 3.3 °F 12.2 °F 88% 30.23 in 10.0 mi SW 9.2 mph - N/A   Clear
8:55 PM 18.3 °F 7.3 °F 14.7 °F 86% 30.23 in 10.0 mi SSW 9.2 mph - N/A   Clear
9:15 PM 16.0 °F 3.6 °F 12.6 °F 86% 30.22 in 10.0 mi South 10.4 mph - N/A   Clear
9:35 PM 16.7 °F 5.3 °F 13.5 °F 87% 30.22 in 10.0 mi South 9.2 mph - N/A   Clear
9:55 PM 17.6 °F 6.4 °F 14.0 °F 86% 30.22 in 10.0 mi South 9.2 mph - N/A   Clear
10:15 PM 17.6 °F 5.0 °F 13.3 °F 83% 30.22 in 10.0 mi South 11.5 mph - N/A   Clear
10:35 PM 17.6 °F 5.0 °F 14.0 °F 86% 30.23 in 10.0 mi South 11.5 mph - N/A   Clear
10:55 PM 17.8 °F 5.2 °F 13.8 °F 84% 30.23 in 10.0 mi South 11.5 mph - N/A   Clear
11:15 PM 19.2 °F 6.4 °F 15.3 °F 85% 30.23 in 10.0 mi South 12.7 mph - N/A   Clear
11:35 PM 19.4 °F 6.6 °F 15.4 °F 85% 30.23 in 10.0 mi South 12.7 mph - N/A   Clear
11:55 PM 20.3 °F 8.3 °F 16.3 °F 85% 30.23 in 10.0 mi South 11.5 mph - N/A   Clear